User: anonymous   Login
Location: Unspecified
(0.0000°N, 0.0000°E)
Time: 01:04:21
(UTC+02:00)
Language:

Cosmos 1125 Rocket - Orbit

View from above orbital plane
View from above orbital plane
View from above satellite
View from above satellite

Ground track
Ground track

The orbit data is extracted from the following two-line orbital elements,

1 11511U 79078B   14295.59210623  .00000499  00000-0  17867-3 0  9263
2 11511 074.0363 295.2914 0014824 051.8542 087.1215 14.36470963839535
Epoch (UTC): 22 October 2014 14:12:37
Eccentricity: 0.0014824
inclination: 74.0363°
perigee height: 759 km
apogee height: 781 km
right ascension of ascending node: 295.2914°
argument of perigee: 51.8542°
revolutions per day: 14.36470963
mean anomaly at epoch: 87.1215°
orbit number at epoch: 83953

The dashed part of the orbit path shows where the satellite is in the earth's shadow,  

DLR